Location: Jaworzyna Śląska
(50.9128°N, 16.4318°E)
Time: 20:45:28
(UTC+01:00)

ISS - Visible Passes

Search period start: 20 March 2019 00:00
Search period end: 30 March 2019 00:00
Orbit: 406 x 411 km, 51.6° (Epoch: 21 March)

Date Brightness Start Highest point End Pass type
(mag) Time Alt. Az. Time Alt. Az. Time Alt. Az.
22 Mar -2.4 19:38:27 10° SSW 19:40:45 23° SSE 19:40:45 23° SSE visible
23 Mar -1.9 18:48:17 10° S 18:50:18 15° SE 18:52:19 10° ESE visible
23 Mar -2.6 20:23:07 10° WSW 20:25:12 34° SW 20:25:12 34° SW visible
24 Mar -3.3 19:32:16 10° SW 19:35:23 41° SSE 19:36:40 27° ESE visible
24 Mar -1.2 21:08:32 10° W 21:09:25 17° W 21:09:25 17° W visible
25 Mar -3.9 20:17:27 10° WSW 20:20:43 85° SSW 20:20:43 85° SSW visible
26 Mar -3.8 19:26:25 10° WSW 19:29:42 68° SSE 19:31:54 19° E visible
26 Mar -1.8 21:02:59 10° W 21:04:39 27° W 21:04:39 27° W visible
27 Mar -3.8 20:11:51 10° W 20:15:10 78° N 20:15:43 57° ENE visible
28 Mar -3.8 19:20:43 10° W 19:24:02 87° N 19:26:44 15° E visible
28 Mar -2.3 20:57:22 10° W 20:59:28 36° WNW 20:59:28 36° WNW visible
29 Mar -3.8 20:06:14 10° W 20:09:32 77° N 20:10:25 46° E visible
29 Mar -0.6 21:42:51 10° W 21:43:08 12° W 21:43:08 12° W visible
